Voltar ao catálogo

DELTA 1 DEB

AtivoPO
NORAD 21287·DEBRIS·🇺🇸 United States

Lançado Jun 12, 1975 de Vandenberg Space Force Base

Loading…

Próximas Passagens (próximas 24 horas)

TLE

AtualizadoSource: Space-Track

Época: Sep 14, 2026, 07:48 UTC

1 21287U 75052Y   26257.32560668 -.00000027  00000-0  30309-4 0  9996
2 21287  99.7466  35.8109 0131387  47.8359 342.2523 13.17960693701282

Acompanhe DELTA 1 DEB em tempo real com AllMySat

Download on the App Store